カタログに戻る

FENGYUN 1C DEB

LostSSO
NORAD 38502·DEBRIS·🇨🇳 China

打ち上げ May 10, 1999 から Taiyuan Satellite Launch Center

Loading…

次のパス (今後24時間)

TLE

古いSource: Space-Track

元期: Dec 6, 2021, 10:11 UTC

1 38502U 99025ESM 21340.42484300  .00000508  00000-0  30450-3 0  9996
2 38502  99.1838 133.5993 0041086 197.6611 190.4646 14.11270516737961

AllMySatでFENGYUN 1C DEBをリアルタイム追跡

Download on the App Store